Location: Enikep?du
(16.5133°N, 80.7066°E)
Time: 07:41:58
(UTC+00:00)

USA 267 - Pass Details

Date: 15 May 2026
Orbit: 1101 x 1107 km, 123.0° (Epoch: 10 January)

Event Time Altitude Azimuth Distance (km) Brightness Sun altitude
Rises 21:56:09 0° 50° (NE) 3,919 7.4 -28.8°
Reaches altitude 10° 21:58:49 10° 57° (ENE) 2,960 6.5 -28.3°
Maximum altitude 22:04:51 40° 125° (SE) 1,573 4.2 -27.1°
Enters shadow 22:07:45 27° 173° (S) 1,983 4.4 -26.5°
